Starlink 32120

operational
NORAD ID: 60265 Int'l Des: 2024-131 Owner: SPXS Country: US Constellation: starlink
LEOCIRCULAR

Über Starlink 32120

Beschreibung wird geladen...

Live-Position

3D-Globus wird geladen...

Nächste Überflüge

Höhenverlauf

Altitude vs Time

uPlot chart will show altitude changes over time

Zweizeiliger Elementsatz

1 60265U 24131L 25305.28244016 -.00000371 00000-0 -39503-6 0 9991
2 60265 53.1597 289.2394 0001339 88.5022 271.6132 15.30191537 72106
Epoch: 1. Nov. 2025 • Age: 18 hours

Aktueller Status

Höhe 479.0 km
Geschwindigkeit 7.63 km/s
Subsatellitenpunkt 44.38°N, 73.15°W
Startdatum 27. Juli 2024
Alter 1.2 years
Typ internet

Technische Details

Klassifizierung Payload
Masse 730.00 kg
Trockenmasse 700.00 kg
Gesamtmasse 730.00 kg
Länge 0.30 m
Durchmesser 4.10 m
Spannweite 29.00 m
Form Box + pan
Hersteller SPXS
Bus-Typ Starlink V2M
Phasenstatus In Orbit
Besitzer/Staat SPXS/US

Große Konstellationen

Loading constellations...